Theta_e
350 352 351 353 363 365 361 361 354 360 360 355 353 359 359 356 358 361 353 353 351 350 350 349 349 352 353 350 350 352 352 352 351 353 351 351 350 349 350 348 349 349 350 351 351 349 350 350 349
354 347 341 347 364 366 364 359 355 357 349 346 346 356 358 361 355 354 353 350 351 350 350 350 349 351 353 350 350 352 353 353 348 353 350 351 350 349 351 351 350 351 351 351 350 351 352 351 350
355 352 348 356 366 366 363 360 358 355 352 352 351 348 354 358 354 353 351 350 350 352 351 351 350 350 352 353 352 352 353 353 352 350 352 352 352 352 352 353 352 352 351 349 349 352 353 353 352
340 347 357 366 365 362 358 356 354 358 356 352 353 359 353 352 351 350 351 351 349 352 350 351 349 351 352 353 353 352 353 352 353 353 353 352 351 353 352 351 350 351 350 351 351 350 353 352 352
345 351 363 366 358 363 352 350 352 355 357 356 356 359 356 351 350 349 350 349 351 351 347 350 350 352 353 351 353 353 353 353 353 354 354 352 354 354 353 354 353 352 352 349 347 346 347 352 350
356 357 366 364 360 357 352 347 349 352 354 356 357 357 356 350 349 349 347 352 353 350 345 346 351 350 352 355 351 350 353 353 352 353 354 354 353 354 353 353 353 353 352 351 352 349 347 349 351
355 361 362 362 362 360 356 347 352 349 356 357 355 359 354 346 347 347 354 354 352 349 345 342 345 351 352 354 352 347 352 351 353 354 355 354 354 352 351 350 350 349 352 352 353 351 350 351 350
355 356 362 363 360 359 354 353 352 350 355 353 352 358 356 345 346 352 353 351 350 348 347 338 340 350 355 351 350 350 344 347 351 351 352 350 349 354 354 351 354 353 353 351 349 348 350 350 345
351 361 362 363 357 356 349 351 351 350 351 353 353 352 348 345 346 348 348 347 349 348 344 344 339 340 352 346 353 354 352 354 348 350 350 345 345 346 348 346 345 349 351 351 352 349 349 346 346
356 364 361 355 353 353 351 354 351 354 354 355 354 352 345 345 344 343 344 347 347 347 346 346 345 346 354 350 345 348 339 346 341 346 348 342 349 349 348 351 349 348 344 339 344 348 350 352 347
354 355 351 349 348 349 354 354 347 353 358 354 354 349 345 343 343 341 341 345 346 345 346 346 346 348 353 353 339 340 345 345 344 349 350 350 351 348 348 348 341 342 336 340 339 342 342 343 347
354 348 348 350 347 352 353 353 352 354 355 352 349 347 345 343 341 341 341 342 342 343 346 347 347 347 350 354 348 349 352 345 345 351 352 349 346 339 345 342 342 345 344 344 343 345 346 346 346
349 352 351 350 347 348 350 351 354 353 353 350 349 347 346 343 342 342 342 342 342 344 347 348 347 347 349 350 352 351 350 349 346 349 347 346 344 344 342 346 347 346 346 346 345 343 344 346 347
350 347 340 346 349 347 352 351 349 353 351 350 349 347 346 343 342 342 342 342 342 343 343 344 348 349 350 350 350 350 349 348 348 349 350 346 347 343 342 345 347 345 345 345 346 345 345 344 344
349 350 346 346 346 350 351 357 349 348 349 350 350 347 346 344 344 342 343 342 342 343 343 344 346 345 346 351 351 351 351 345 350 351 349 348 348 346 348 348 347 347 347 346 348 347 345 347 347
350 350 355 351 350 351 351 354 350 346 348 348 350 349 347 345 343 343 343 343 343 343 344 346 347 348 348 349 353 354 353 348 348 350 350 351 349 346 343 340 343 343 344 344 345 347 347 348 347
351 352 353 353 348 352 349 352 352 347 347 347 346 347 347 345 342 343 343 342 343 344 344 346 349 349 350 350 351 353 355 355 353 352 351 351 350 351 347 341 344 345 349 349 349 349 349 348 347
351 353 352 353 350 349 354 352 348 350 347 348 346 345 344 344 343 343 343 342 344 345 345 346 346 350 349 353 353 355 354 354 354 354 352 352 351 352 353 351 350 347 346 350 349 349 347 349 348
342 349 351 347 348 349 356 357 355 352 349 349 346 346 344 343 340 343 342 342 347 347 346 348 347 351 351 353 354 355 355 355 356 354 354 355 353 354 353 352 350 348 350 350 351 351 352 351 349
338 340 349 346 346 350 357 357 354 356 349 349 351 347 346 344 340 341 343 342 346 348 347 348 350 351 353 354 355 355 356 356 357 357 354 355 356 354 351 350 350 350 350 352 350 351 353 352 349
335 338 350 348 348 349 353 356 353 354 350 347 348 347 346 345 343 342 342 343 343 349 348 348 350 354 353 354 357 358 360 358 358 356 355 355 355 355 352 349 347 346 348 350 350 350 352 351 350
335 339 343 344 352 359 354 361 353 349 347 345 345 349 347 346 344 344 343 344 345 348 351 350 351 355 356 357 360 361 359 358 357 354 356 356 353 350 348 349 345 344 349 352 352 352 351 350 347
338 336 336 344 351 350 353 362 356 349 351 348 341 345 348 346 346 346 346 345 347 349 349 353 353 355 357 358 358 359 362 360 358 358 354 351 348 349 346 348 347 349 352 353 354 352 350 351 349
331 336 336 345 347 356 351 355 357 354 348 348 345 347 349 347 347 346 346 346 346 351 352 353 353 354 357 358 360 360 362 359 356 353 350 347 348 346 347 349 348 350 351 351 351 350 350 350 349
329 334 335 343 355 358 348 351 350 349 347 348 348 348 347 348 347 346 346 346 347 348 351 353 358 359 357 359 361 362 359 361 356 354 352 351 347 347 348 352 352 351 352 351 351 351 349 348 347
329 332 335 343 356 363 349 357 353 346 346 347 345 345 345 350 347 347 348 346 347 347 350 353 357 361 361 364 363 362 360 360 355 354 353 348 350 350 349 350 350 350 351 350 348 348 347 346 346
325 329 332 336 336 354 358 355 347 346 345 347 343 346 346 348 347 348 348 347 347 349 349 356 361 363 363 361 361 361 361 357 356 354 345 348 352 351 349 348 347 346 347 350 349 347 347 346 344
325 330 330 332 342 351 355 354 352 348 349 348 341 346 345 347 347 349 347 350 351 350 353 361 362 362 361 361 360 360 360 357 355 350 355 352 350 349 348 348 349 347 345 347 346 345 343 342 343
326 327 329 329 334 343 356 354 345 344 347 346 340 343 344 346 346 346 346 350 351 354 360 362 362 362 362 360 361 358 355 355 353 353 352 351 349 349 350 348 347 345 345 346 343 341 340 340 339
328 328 327 328 331 337 343 348 342 341 345 346 347 345 347 349 349 347 351 353 353 354 360 362 363 361 361 360 359 357 355 355 353 353 350 352 349 349 348 348 345 342 342 341 340 339 337 336 335
Wind_Speed
16 10 3 4 3 1 1 8 11 5 7 4 8 13 14 6 3 4 28 27 28 26 26 22 21 20 18 18 16 16 15 15 14 13 12 11 11 11 10 11 11 11 10 9 8 8 7 7 9
21 9 9 3 1 1 3 6 12 9 19 10 14 18 18 15 15 17 24 34 29 27 25 24 21 19 19 18 17 16 14 13 12 12 11 11 11 11 10 11 11 11 11 10 8 9 8 7 8
7 9 4 2 5 3 2 4 15 20 20 16 6 2 8 11 17 23 36 36 29 28 24 24 22 20 18 17 17 16 15 14 13 12 11 10 10 10 10 10 11 11 10 10 9 9 9 7 6
5 5 4 2 5 5 2 8 12 19 22 16 19 13 8 28 26 26 41 38 32 31 25 24 22 19 18 17 16 15 14 13 12 11 11 10 10 11 11 11 11 10 10 9 8 9 10 7 6
14 3 4 2 2 5 1 5 5 3 13 17 18 16 13 21 28 38 42 38 37 34 28 25 22 20 17 15 15 14 13 12 11 10 10 11 11 12 11 11 10 11 9 9 8 8 9 8 6
3 2 2 3 0 5 4 5 3 3 20 19 22 15 5 21 30 38 35 38 41 34 30 25 22 18 17 14 13 13 13 12 11 10 11 11 11 12 12 12 11 11 10 9 8 7 8 7 6
1 3 3 4 3 7 4 3 3 5 19 13 18 12 3 9 34 30 42 39 33 32 31 26 21 17 15 14 11 11 11 12 12 10 11 11 10 10 10 11 11 10 10 10 9 8 9 8 8
2 3 4 4 2 3 6 3 6 10 12 22 18 6 8 12 25 41 41 38 35 28 27 24 20 19 16 13 12 11 11 11 10 10 10 9 9 9 9 8 8 8 10 8 8 7 7 7 8
5 3 4 4 2 2 4 5 9 12 13 9 6 20 16 27 31 33 34 35 33 29 24 22 20 20 16 13 13 11 9 8 8 8 9 9 8 9 7 6 6 8 7 8 8 8 8 9 9
6 4 7 8 4 5 8 11 6 4 7 20 20 15 28 24 21 28 27 29 29 31 29 27 21 21 21 16 14 14 12 12 10 10 10 9 7 6 9 9 8 8 7 7 9 9 9 10 11
8 5 8 4 4 12 10 7 6 8 4 19 22 21 17 18 14 18 20 31 29 33 31 33 24 23 28 21 17 15 13 11 11 12 11 10 9 7 9 9 8 7 9 8 9 10 10 11 14
4 10 5 6 4 15 8 7 8 6 7 17 17 18 16 17 9 18 18 26 20 22 35 34 26 25 28 23 18 17 17 10 17 14 14 13 12 12 10 11 11 12 10 10 7 11 14 14 16
4 2 10 13 6 8 11 12 6 6 18 19 19 15 14 11 10 23 25 30 25 26 33 29 29 25 20 22 15 22 20 17 10 21 20 19 13 14 10 9 10 10 10 9 6 8 6 8 14
15 18 22 11 12 4 5 6 11 18 21 19 16 13 13 11 13 19 21 26 30 28 29 27 31 22 17 16 9 14 15 9 13 18 21 18 13 9 10 12 12 13 12 12 13 11 11 10 11
10 8 6 17 9 4 5 5 8 12 18 18 14 10 11 12 17 19 21 25 31 29 29 30 25 21 20 14 10 11 11 11 11 18 16 16 20 15 13 12 14 14 15 16 14 13 13 12 12
4 5 2 9 10 4 13 5 8 7 14 13 16 14 11 10 11 22 20 21 30 28 27 30 22 20 16 18 13 9 8 11 17 16 16 19 18 20 17 17 17 15 17 18 18 16 15 14 13
7 2 6 12 7 8 7 5 16 10 12 13 12 11 11 7 9 22 20 22 32 27 28 28 24 22 19 16 16 13 14 15 15 16 14 20 20 16 13 16 14 11 11 14 16 15 12 14 16
7 3 8 5 5 11 20 5 20 7 9 14 13 12 9 8 8 22 20 19 29 28 29 26 20 24 21 18 16 15 13 13 15 18 18 20 22 17 13 12 14 14 14 16 14 15 14 16 16
9 14 17 4 4 4 15 17 10 13 15 4 10 13 10 10 10 24 20 21 25 34 30 26 23 16 24 22 21 18 17 15 17 19 14 9 19 14 13 16 17 17 15 16 15 15 13 14 13
3 2 10 22 12 10 14 10 5 15 9 6 7 16 15 13 11 14 23 26 23 35 33 29 26 24 24 22 20 15 13 11 5 11 13 12 12 12 12 12 10 13 16 14 15 12 12 12 9
4 2 8 14 3 12 6 6 6 10 13 3 6 16 17 17 17 16 16 23 27 33 36 34 30 26 27 23 18 17 17 15 14 8 11 10 10 9 9 9 10 11 14 16 11 13 11 13 7
5 3 3 3 8 4 7 4 8 7 12 8 5 7 15 13 17 18 17 19 27 32 36 37 34 29 26 24 20 20 19 14 11 12 13 6 4 6 10 11 9 15 16 14 11 10 11 7 10
6 5 6 16 16 8 17 5 8 8 10 11 9 4 12 16 17 19 19 24 28 32 35 37 36 31 29 27 24 21 14 13 10 9 8 3 1 4 6 4 1 6 8 10 10 7 7 7 10
11 5 6 8 4 5 10 3 8 4 9 7 14 10 12 18 18 15 23 26 25 29 34 37 38 37 32 26 25 21 12 14 9 12 7 2 0 2 3 0 2 6 6 7 6 5 7 6 5
8 2 3 3 4 3 8 6 9 10 12 11 16 14 24 19 17 20 15 12 25 24 33 34 38 36 34 28 25 22 17 7 10 6 3 3 2 0 2 3 5 6 6 3 4 4 5 6 6
8 5 5 5 5 4 10 6 5 1 8 9 16 20 21 10 16 18 16 21 27 27 31 32 35 30 32 23 19 16 11 10 4 6 4 3 3 8 4 2 4 7 9 10 9 10 10 9 9
9 7 8 4 2 4 4 4 7 2 6 11 24 3 3 5 13 17 15 26 29 28 31 34 32 30 28 23 18 16 14 9 6 10 6 5 11 8 7 5 5 8 8 9 6 10 11 10 10
8 5 4 4 2 1 2 3 5 5 5 10 2 7 10 1 8 9 11 17 25 29 30 34 34 33 26 23 20 18 15 12 11 10 8 10 9 9 6 6 8 9 9 13 12 11 11 12 11
2 4 4 1 3 4 4 6 6 14 10 15 9 9 10 6 8 7 8 18 25 28 34 31 31 30 28 26 21 16 15 12 10 11 8 10 11 9 9 8 7 8 8 9 12 12 12 13 13
9 8 8 5 9 3 6 4 7 13 12 10 14 11 8 6 5 7 8 13 17 23 30 30 33 32 32 26 21 19 19 15 17 13 13 12 11 10 9 9 10 9 7 7 9 9 7 6 7
Wind_Direction
97 87 32 3 7 9 353 8 131 240 63 48 115 75 77 52 162 163 149 143 149 143 141 142 140 134 132 130 129 131 129 126 124 125 119 117 122 122 127 131 143 143 142 141 137 138 139 132 131
92 78 30 68 315 111 324 321 123 143 119 76 54 94 70 70 89 118 136 140 142 145 144 144 143 138 135 135 133 128 138 140 132 131 129 126 128 136 126 127 136 142 144 141 131 135 144 143 133
102 182 75 100 257 138 161 6 327 83 103 105 88 25 81 115 126 140 145 140 144 140 148 145 147 143 137 137 135 135 136 141 141 134 131 129 137 147 132 123 130 139 147 144 134 138 140 143 144
108 61 121 228 68 5 98 123 187 105 101 94 110 92 112 140 145 146 145 147 141 149 152 149 146 141 139 137 136 136 137 141 141 138 138 132 134 139 140 135 128 137 149 146 153 154 144 146 147
33 46 30 347 349 299 337 95 106 61 107 122 112 112 116 135 148 143 147 146 144 154 151 148 143 143 141 140 141 142 145 146 142 138 148 140 136 140 136 132 131 132 145 145 146 155 157 161 167
66 103 299 146 153 279 321 68 46 70 128 115 103 104 106 149 145 152 149 138 150 151 150 148 147 147 143 147 143 148 150 146 151 142 137 144 142 140 139 136 134 135 135 141 148 156 158 166 178
280 130 280 288 172 195 193 163 111 97 135 125 130 119 169 142 156 146 130 133 142 144 148 150 151 149 146 146 144 146 152 150 144 149 148 151 148 146 144 143 140 141 147 150 161 173 177 183 188
214 68 269 236 250 151 166 204 197 109 101 130 133 159 164 158 143 126 128 134 138 145 149 149 155 155 156 153 154 147 150 158 160 163 163 161 157 153 152 153 152 157 164 166 177 186 194 200 204
124 46 260 251 228 156 137 90 72 90 88 54 96 145 141 159 137 129 133 136 139 146 149 155 161 160 159 162 160 159 163 171 173 178 176 169 161 169 165 163 178 175 183 193 207 211 215 219 224
132 222 240 212 205 135 161 101 85 69 33 109 118 140 141 162 155 146 144 145 150 159 161 166 165 163 168 171 170 174 176 176 184 194 193 180 190 193 200 202 208 209 209 222 229 231 233 233 239
156 226 304 159 66 113 103 100 120 131 133 133 139 142 153 152 169 143 143 149 157 168 161 170 170 170 173 178 173 173 176 187 195 203 208 191 194 195 213 216 235 229 229 239 243 235 237 249 241
157 303 265 345 321 116 142 126 141 169 169 142 142 148 157 160 177 154 153 147 162 155 164 172 169 177 180 184 180 170 177 189 222 216 214 214 216 219 225 244 249 253 245 257 276 259 266 247 244
216 25 359 306 294 129 149 153 160 147 130 136 145 157 156 162 170 160 163 155 164 147 159 168 175 171 183 181 188 185 188 213 183 200 212 215 216 214 220 234 247 238 238 254 257 268 279 247 242
78 42 344 323 290 308 121 132 129 130 128 132 143 159 166 173 173 167 169 162 165 163 166 167 169 170 158 165 168 166 185 189 209 199 214 211 217 224 240 249 232 254 257 263 280 277 270 266 260
100 102 242 285 292 223 90 39 108 128 128 135 147 171 176 177 181 175 182 163 166 173 172 175 178 186 192 188 190 200 213 214 194 204 216 221 215 219 224 230 249 264 268 264 266 263 272 260 273
53 49 16 282 275 93 86 285 293 133 130 147 159 171 182 182 184 170 167 163 169 173 165 167 176 186 190 196 197 206 204 205 210 230 240 243 230 229 238 247 261 273 284 271 262 267 265 266 265
28 185 237 288 243 133 62 349 303 269 156 160 161 164 171 188 168 168 173 174 165 165 165 165 179 188 191 189 195 208 224 236 237 241 234 241 253 246 240 250 260 273 292 285 268 262 261 268 268
190 252 298 212 229 106 102 140 268 289 165 166 162 157 163 181 180 170 183 184 170 171 168 174 180 190 197 188 194 211 227 243 245 248 244 250 244 245 255 260 265 264 284 278 275 267 258 264 275
242 157 240 16 250 121 156 110 320 337 13 255 163 157 165 181 182 173 186 192 170 168 171 175 180 178 188 187 195 210 232 245 260 252 237 266 232 242 274 257 255 276 267 268 280 256 253 248 256
240 115 55 331 291 54 100 90 250 10 312 294 234 167 176 177 176 175 188 190 176 172 176 179 185 186 184 191 200 214 232 236 300 230 236 264 247 270 290 303 306 294 292 274 273 254 254 260 252
292 179 145 218 172 57 142 139 154 203 252 281 325 181 183 180 181 176 187 188 196 176 182 184 189 192 201 207 209 219 220 238 261 257 252 257 273 291 304 275 261 295 275 289 281 260 251 262 270
232 217 273 315 62 50 333 298 311 280 302 320 236 275 179 190 179 175 187 189 197 185 185 188 190 194 202 203 202 216 225 235 267 258 257 229 281 315 314 292 258 228 258 280 287 270 270 260 260
262 289 317 71 101 78 1 18 275 298 307 280 270 253 204 186 181 181 187 194 193 189 185 188 191 194 200 205 212 216 227 223 255 256 165 168 291 343 342 0 83 270 306 289 291 293 290 261 263
291 320 329 79 96 76 261 256 280 252 242 283 270 265 243 177 179 175 186 185 196 179 180 188 194 198 199 205 211 209 213 218 164 139 141 145 202 20 110 95 315 290 289 296 300 324 325 326 317
292 174 293 17 11 198 212 190 264 313 272 276 281 311 279 186 170 174 175 178 190 177 180 184 187 192 199 201 203 203 215 208 150 151 109 141 179 238 79 8 326 338 352 346 351 3 36 37 43
254 197 169 254 173 174 170 214 250 223 94 266 268 259 262 161 166 170 181 187 183 198 177 181 186 186 192 184 183 185 188 193 183 156 182 158 224 148 100 56 27 33 50 55 57 62 56 53 58
256 276 240 282 348 106 185 285 295 172 295 258 246 273 147 154 154 175 178 173 186 189 178 173 174 175 178 178 177 172 172 170 174 163 134 138 124 103 97 93 57 46 64 56 74 70 66 75 61
177 226 326 336 342 70 258 206 226 223 247 281 150 277 305 109 142 147 161 161 170 171 162 166 168 166 166 167 170 167 166 148 149 148 125 148 123 111 112 115 106 73 74 65 87 82 76 79 75
250 251 266 178 153 194 139 261 217 192 200 228 226 227 266 167 136 149 138 155 160 146 154 152 154 160 164 163 162 164 161 166 161 152 149 129 127 126 120 110 93 82 68 71 80 71 71 73 70
194 211 192 135 278 207 129 250 304 184 193 244 266 236 203 146 135 140 119 128 141 130 145 147 154 156 160 156 158 164 163 167 161 160 134 145 144 134 110 117 108 94 92 71 70 64 49 35 48